DW4116 Weather Reports


time (UTC)temp
C
wind
direction
speed
KPH
gust
KPH
rain 1hr
cm
rain 24hr
cm
rain mn
cm
humidity
%
barometer
mb
20260507010904 18 360 1.6 6.4 0.00 0.00 0.00 81 1007.9
20260507010004 18 360 1.6 8.0 0.00 0.00 0.00 81 1007.9
20260507005403 18 360 1.6 6.4 0.00 0.00 0.00 81 1007.9
20260507004503 18 360 3.2 8.0 0.00 0.00 0.00 80 1007.6
20260507003603 18 360 4.8 17.7 0.00 0.00 0.00 81 1007.9
20260507002704 18 360 1.6 8.0 0.00 0.00 0.00 80 1007.7
20260507001804 18 360 1.6 4.8 0.00 0.00 0.00 79 1007.3
20260507000904 19 360 1.6 6.4 0.00 0.00 0.00 79 1007.2
20260507000004 19 360 4.8 8.0 0.00 0.00 0.00 78 1007.2
20260506235403 19 360 4.8 16.1 0.00 0.00 0.00 78 1007.0
20260506234503 20 343 3.2 12.9 0.00 0.00 0.00 78 1007.2
20260506233604 20 209 3.2 12.9 0.00 0.00 0.00 77 1007.0
20260506232703 20 207 3.2 11.3 0.00 0.00 0.00 77 1007.2
20260506231803 20 214 4.8 12.9 0.00 0.00 0.00 77 1007.3
20260506231117 20 214 3.2 11.3 0.00 0.00 0.00 76 1007.1
20260506230219 20 205 4.8 12.9 0.00 0.00 0.00 76 1007.1
20260506225404 20 206 6.4 14.5 0.00 0.00 0.00 75 1007.2
20260506224718 21 221 6.4 12.9 0.00 0.00 0.00 75 1007.3
20260506223604 21 229 8.0 24.1 0.00 0.00 0.00 75 1007.3
20260506222704 21 232 8.0 22.5 0.00 0.00 0.00 74 1007.2
20260506221804 21 214 6.4 14.5 0.00 0.00 0.00 74 1007.0
20260506220903 21 225 4.8 14.5 0.00 0.00 0.00 74 1007.1
20260506220003 21 226 6.4 19.3 0.00 0.00 0.00 74 1006.9
20260506215404 21 231 6.4 19.3 0.00 0.00 0.00 73 1006.7
20260506214504 21 219 8.0 22.5 0.00 0.00 0.00 73 1007.0
20260506213603 21 227 8.0 25.7 0.00 0.00 0.00 74 1006.9
20260506212705 21 229 6.4 19.3 0.00 0.00 0.00 74 1006.7
20260506211803 21 230 6.4 19.3 0.00 0.00 0.00 74 1006.8
20260506210903 21 226 8.0 24.1 0.00 0.00 0.00 74 1006.8
20260506210003 21 221 8.0 22.5 0.00 0.00 0.00 73 1006.7
20260506205404 21 196 4.8 19.3 0.00 0.00 0.00 73 1006.6
20260506204503 21 218 8.0 19.3 0.00 0.00 0.00 73 1006.4
20260506203603 21 222 8.0 19.3 0.00 0.00 0.00 73 1006.4
20260506202919 21 221 9.7 22.5 0.00 0.00 0.00 73 1006.4
20260506201805 21 230 8.0 19.3 0.00 0.00 0.00 74 1006.5
20260506200904 21 212 8.0 27.4 0.00 0.00 0.00 74 1006.4
20260506200004 21 210 9.7 27.4 0.00 0.00 0.00 74 1006.6
20260506195404 21 216 9.7 20.9 0.00 0.00 0.00 74 1006.7
20260506194503 20 239 8.0 30.6 0.00 0.00 0.00 74 1006.8
20260506193603 20 229 11.3 30.6 0.00 0.00 0.00 74 1007.0
20260506192920 20 256 9.7 25.7 0.00 0.00 0.00 74 1007.1
20260506191805 20 360 9.7 25.7 0.00 0.00 0.00 76 1007.3
20260506190903 20 360 9.7 24.1 0.00 0.00 0.00 76 1007.3
20260506190004 20 360 9.7 27.4 0.00 0.00 0.00 77 1007.3
20260506185403 20 360 9.7 27.4 0.00 0.00 0.00 77 1007.3
20260506184504 19 360 8.0 24.1 0.00 0.00 0.00 77 1007.3
20260506183604 19 360 9.7 22.5 0.00 0.00 0.00 78 1007.5
20260506182703 19 360 9.7 27.4 0.00 0.00 0.00 78 1007.6
20260506181803 18 360 8.0 20.9 0.00 0.00 0.00 79 1007.9
20260506180903 18 360 11.3 33.8 0.00 0.00 0.00 79 1007.7
20260506180005 18 360 12.9 33.8 0.00 0.00 0.00 80 1007.7
20260506175404 18 360 8.0 30.6 0.00 0.00 0.00 81 1007.7
20260506174503 18 360 9.7 20.9 0.00 0.00 0.00 83 1007.7
20260506173819 18 360 9.7 20.9 0.00 0.00 0.00 82 1007.8
20260506172705 18 360 8.0 24.1 0.00 0.00 0.00 81 1007.8
20260506171804 18 360 8.0 25.7 0.00 0.00 0.00 80 1008.1
20260506170903 18 360 8.0 25.7 0.00 0.00 0.00 80 1008.2
20260506170218 18 360 8.0 22.5 0.00 0.00 0.00 80 1008.3
20260506165403 18 360 8.0 19.3 0.00 0.00 0.00 80 1008.4
20260506164503 18 360 8.0 20.9 0.00 0.00 0.00 80 1008.5
20260506163819 18 360 11.3 25.7 0.00 0.00 0.00 79 1008.4
20260506162704 19 360 6.4 20.9 0.00 0.00 0.00 78 1008.5
20260506162019 19 360 6.4 17.7 0.00 0.00 0.00 77 1008.8
20260506160904 19 360 8.0 22.5 0.00 0.00 0.00 76 1009.3
20260506160003 20 360 11.3 25.7 0.00 0.00 0.00 73 1009.5
20260506155404 20 360 11.3 22.5 0.00 0.00 0.00 72 1009.4
20260506154503 21 360 12.9 30.6 0.00 0.00 0.00 70 1009.4
20260506153603 21 360 9.7 30.6 0.00 0.00 0.00 70 1009.4
20260506152917 21 360 8.0 30.6 0.00 0.00 0.00 70 1009.2
20260506151804 21 360 9.7 25.7 0.00 0.00 0.00 68 1009.3
20260506150904 21 360 8.0 24.1 0.00 0.00 0.00 67 1009.4
20260506150219 21 360 6.4 19.3 0.00 0.00 0.00 66 1009.3
20260506145621 21 360 6.4 24.1 0.00 0.00 0.00 67 1009.3
20260506144504 21 360 8.0 24.1 0.00 0.00 0.00 68 1009.3
20260506143603 20 360 9.7 20.9 0.00 0.00 0.00 69 1009.4
20260506142703 20 360 6.4 20.9 0.00 0.00 0.00 68 1009.4
20260506141804 20 360 6.4 17.7 0.00 0.00 0.00 69 1009.4
20260506140903 20 360 8.0 17.7 0.00 0.00 0.00 68 1009.4
20260506140003 20 360 8.0 24.1 0.00 0.00 0.00 67 1009.4
20260506135403 20 360 9.7 24.1 0.00 0.00 0.00 68 1009.3
20260506134505 20 360 9.7 29.0 0.00 0.00 0.00 68 1009.2
20260506133604 20 360 8.0 24.1 0.00 0.00 0.00 69 1009.3
20260506132703 20 360 8.0 20.9 0.00 0.00 0.00 69 1009.3
20260506131803 19 360 6.4 17.7 0.00 0.00 0.00 70 1009.4
20260506130904 20 360 8.0 19.3 0.00 0.00 0.00 70 1009.4
20260506130005 20 360 9.7 22.5 0.00 0.00 0.00 69 1009.6
20260506125403 20 360 6.4 22.5 0.00 0.00 0.00 69 1009.7
20260506124504 20 360 9.7 22.5 0.00 0.00 0.00 69 1009.8
20260506123604 20 360 8.0 22.5 0.00 0.00 0.00 69 1009.8
20260506122703 20 360 6.4 16.1 0.00 0.00 0.00 70 1009.7
20260506122021 19 360 8.0 19.3 0.00 0.00 0.00 71 1009.9
20260506120904 18 360 6.4 19.3 0.00 0.00 0.00 73 1009.8
20260506120004 18 360 9.7 24.1 0.00 0.00 0.00 72 1009.6
20260506115623 18 360 9.7 24.1 0.00 0.00 0.00 73 1009.7
20260506114503 18 360 8.0 22.5 0.00 0.00 0.00 73 1009.5
20260506113603 18 360 8.0 24.1 0.00 0.00 0.00 74 1009.6
20260506112703 18 360 6.4 14.5 0.00 0.00 0.00 75 1009.6
20260506111803 17 360 8.0 20.9 0.00 0.00 0.00 75 1009.7
20260506110904 17 360 6.4 19.3 0.00 0.00 0.00 76 1009.6
20260506110004 17 360 6.4 19.3 0.00 0.00 0.00 77 1009.6
20260506105405 17 360 6.4 17.7 0.00 0.00 0.00 77 1009.6
20260506104721 17 360 6.4 17.7 0.00 0.00 0.00 77 1009.6
20260506103604 17 360 6.4 16.1 0.00 0.00 0.00 77 1009.6
20260506102703 17 360 6.4 16.1 0.00 0.00 0.00 77 1009.6
20260506101803 16 360 4.8 14.5 0.00 0.00 0.00 77 1009.6
20260506100903 16 360 4.8 17.7 0.00 0.00 0.00 78 1009.6
20260506100004 16 360 4.8 17.7 0.00 0.00 0.00 78 1009.6
20260506095619 16 360 6.4 19.3 0.00 0.00 0.00 78 1009.5
20260506094503 17 360 6.4 14.5 0.00 0.00 0.00 78 1009.4
20260506093603 17 360 4.8 17.7 0.00 0.00 0.00 78 1009.3
20260506092703 17 360 4.8 14.5 0.00 0.00 0.00 78 1009.4
20260506091803 17 360 4.8 16.1 0.00 0.00 0.00 78 1009.3
20260506090904 17 360 4.8 17.7 0.00 0.00 0.00 79 1009.5
20260506090003 17 360 4.8 14.5 0.00 0.00 0.00 79 1009.5
20260506085403 17 360 4.8 16.1 0.00 0.00 0.00 79 1009.5
20260506084503 17 360 6.4 17.7 0.00 0.00 0.00 79 1009.5
20260506083819 17 360 6.4 16.1 0.00 0.00 0.00 79 1009.6
20260506082917 17 360 6.4 17.7 0.00 0.00 0.00 78 1009.7
20260506081803 17 360 6.4 16.1 0.00 0.00 0.00 78 1009.9
20260506080905 17 360 6.4 19.3 0.00 0.00 0.00 78 1009.8
20260506072703 17 360 4.8 17.7 0.00 0.00 0.00 78 1009.8
20260506071803 17 360 3.2 19.3 0.00 0.00 0.00 78 1009.8
20260506070903 17 360 4.8 16.1 0.00 0.00 0.00 78 1009.8
20260506061804 18 171 6.4 19.3 0.00 0.00 0.00 78 1010.0
20260506060903 18 174 6.4 14.5 0.00 0.00 0.00 77 1010.0
20260506050903 18 360 6.4 19.3 0.00 0.00 0.00 76 1010.3
20260506044504 18 360 6.4 20.9 0.00 0.00 0.00 75 1010.4
20260506043603 18 360 6.4 19.3 0.00 0.00 0.00 75 1010.4
20260506042703 18 360 6.4 22.5 0.00 0.00 0.00 75 1010.5
20260506041804 18 360 6.4 16.1 0.00 0.00 0.00 75 1010.5
20260506040903 18 360 4.8 17.7 0.00 0.00 0.00 75 1010.3
20260506040005 18 360 4.8 14.5 0.00 0.00 0.00 75 1010.4
20260506035403 18 360 6.4 16.1 0.00 0.00 0.00 74 1010.4
20260506034504 18 360 6.4 19.3 0.00 0.00 0.00 74 1010.4
20260506033605 18 360 6.4 17.7 0.00 0.00 0.00 74 1010.3
20260506032703 18 360 4.8 17.7 0.00 0.00 0.00 74 1010.3
20260506031805 18 360 4.8 19.3 0.00 0.00 0.00 73 1010.4
20260506030904 18 360 6.4 14.5 0.00 0.00 0.00 73 1010.5
20260506030004 19 360 6.4 22.5 0.00 0.00 0.00 73 1010.5
20260506025403 19 360 6.4 14.5 0.00 0.00 0.00 72 1010.6
20260506024503 19 360 6.4 19.3 0.00 0.00 0.00 72 1010.6
20260506023604 19 360 8.0 24.1 0.00 0.00 0.00 72 1010.7
20260506022703 19 360 8.0 22.5 0.00 0.00 0.00 71 1010.6
20260506021803 19 360 8.0 20.9 0.00 0.00 0.00 70 1010.7
20260506020903 20 360 6.4 17.7 0.00 0.00 0.00 70 1010.5
20260506020217 20 360 6.4 19.3 0.00 0.00 0.00 69 1010.5
20260506015404 20 360 8.0 19.3 0.00 0.00 0.00 68 1010.5
20260506014503 20 360 6.4 19.3 0.00 0.00 0.00 67 1010.4
20260506013604 20 360 8.0 20.9 0.00 0.00 0.00 66 1010.1
20260506012703 20 360 8.0 20.9 0.00 0.00 0.00 65 1010.2
20260506012018 20 360 6.4 19.3 0.00 0.00 0.00 64 1010.0